(85) Io
ephemeris date magn radius delta ra dec elong phase
Today26 Dec 202412.62.224 AU3.178 AU18h51m-14°36'11.6°5.1°
Opposition16 Oct 202510.42.313 AU1.317 AU01h27m+09°02'179.5°0.2°
(85) Io - 2024-12-26
astro.vanbuitenen.nl


 
-1 year
-1 month
-1 day
Now
+1 day
+1 month
+1 year

The interactive orbit chart above shows the body's path through the solar system and its position at the given date. Green and blue lines are shown perpendicular to the ecliptic plane: Green if the path is above the ecliptic plane, blue if it is below. (Left-click and drag to rotate the view; Right-click and drag to move the view; Use scroll wheel to zoom in our out.)

The orbital elements of Io are:

            e (Eccentricity)                : 0.1933554
            a (Semimajor axis)              : 2.6538284
            i (Inclination)                 : 11.96028
            Ω (Longitude of ascending node) : 203.04837
            ω (Argument of perihelion)      : 122.88739
            M (Mean anomaly)                : 317.06209
            Epoch                           : 2024 Oct 17

            L (Longitude of perihelion)     : 146.51170
            B (Latitude of perihelion)      : 10.02176
            P (Orbital period in years)     : 4.32            
        

The light curve chart below shows the estimated development of the minor planet's magnitude.


The all-sky chart below shows the path of the minor planet over the same period as the light curve. The current position is marked yellow.





The following chart shows the path of the minor planet in the next few days. The field of view is optimized for (~10x50) binoculars and finderscopes. A more printer-friendly version of the same chart can be found below.




Ephemerides:
Date       Time       RA (2000)    DEC (2000)    delta   radius  elong  phase   PA    magn
2024-12-26 00:00 UT   18 51 02.9   -14 36 34     3.178    2.224   11.6    5.1    40   12.6 
2024-12-26 12:56 UT   18 52 13.9   -14 35 02     3.178    2.223   11.4    5.0    39   12.6 
2024-12-27 00:00 UT   18 53 14.6   -14 33 41     3.179    2.222   11.2    5.0    38   12.6 
2024-12-28 00:00 UT   18 55 26.5   -14 30 40     3.179    2.221   10.9    4.8    36   12.6 
2024-12-29 00:00 UT   18 57 38.3   -14 27 32     3.179    2.220   10.6    4.7    33   12.6 
2024-12-30 00:00 UT   18 59 50.3   -14 24 17     3.179    2.218   10.3    4.6    31   12.6 
2024-12-31 00:00 UT   19 02 02.3   -14 20 54     3.179    2.217   10.1    4.4    29   12.6 
2025-01-01 00:00 UT   19 04 14.4   -14 17 24     3.178    2.216    9.8    4.3    26   12.6 
2025-01-02 00:00 UT   19 06 26.5   -14 13 46     3.178    2.214    9.5    4.2    24   12.6 
2025-01-03 00:00 UT   19 08 38.6   -14 10 01     3.178    2.213    9.3    4.1    21   12.6 
2025-01-04 00:00 UT   19 10 50.8   -14 06 09     3.177    2.212    9.1    4.0    18   12.6 
2025-01-05 00:00 UT   19 13 02.9   -14 02 09     3.177    2.211    8.9    4.0    15   12.5 
2025-01-06 00:00 UT   19 15 15.1   -13 58 02     3.176    2.210    8.8    3.9    12   12.5 
2025-01-07 00:00 UT   19 17 27.3   -13 53 48     3.176    2.208    8.6    3.8     9   12.5 
2025-01-08 00:00 UT   19 19 39.5   -13 49 27     3.175    2.207    8.5    3.8     5   12.5 
2025-01-09 00:00 UT   19 21 51.7   -13 44 58     3.174    2.206    8.4    3.7     2   12.5 
2025-01-10 00:00 UT   19 24 03.9   -13 40 22     3.173    2.205    8.3    3.7   358   12.5 


    Terminology:
            
    delta:  distance between minor planet and earth in AU
    radius: distance between minor planet and sun in AU
    magn:   magnitude (brightness) estimate    
    ra:     right ascension in hours (24h = 360deg)
    dec:    declination in degrees
    elong:  elongation in degrees (angle sun-earth-minor planet)    
    phase:  phase angle in degrees (angle sun-minor planet-earth)        
    AU:     Astronomical Unit (mean distance between earth and sun: 149597870.7 km
    

Orbital elements provided by the MPC (Minor Planet Center).
Calculations by a modified version of AAPlus, a C# implementation of the AA+ project by PJ Naughter from the algorithms presented in the book "Astronomical Algorithms" by Jean Meeus.
NGC2000 dso catalog and star labels from VizieR as provided by the Strasbourg astronomical Data Center.
Tycho2 catalog from the ESO archive.